Snowfall_Accumulation
0.0 0.0 0.0 0.0 0.0 0.0 0.0 0.0 0.0 0.0 0.0 0.0 0.0 0.0 0.0 0.0 0.0 0.0 0.0 0.0 0.0 7.8 1.7 0.4 0.3 0.5 0.6 0.6 2.9 2.0 4.1 6.3 10.1 18.6 14.3 8.2 6.3 2.0 1.4 0.4 0.4 1.1 2.3 3.3 8.0 18.9 10.9 0.4 0.1 1.0 0.2 0.0 0.0 0.0
0.0 0.0 0.0 0.0 0.0 0.0 0.0 0.0 0.0 0.0 0.0 0.0 0.0 0.0 0.0 0.0 0.0 0.0 0.0 0.0 0.0 3.1 5.2 0.0 0.0 0.0 0.0 0.0 0.0 2.2 2.6 1.4 1.7 8.2 8.9 7.1 7.8 4.2 1.6 2.6 0.0 0.8 0.1 1.1 0.6 1.5 0.0 0.1 0.1 0.0 0.0 0.0 0.0 0.0
0.0 0.0 0.0 0.0 0.0 0.0 0.0 0.0 0.0 0.0 0.0 0.0 0.0 0.0 0.0 0.0 0.0 0.0 0.0 0.0 0.0 10.6 7.6 1.8 1.4 0.0 0.0 0.0 0.0 3.9 2.8 0.3 1.9 0.1 4.9 6.3 13.3 5.5 6.4 3.3 1.0 0.3 0.0 0.6 1.4 0.4 0.1 0.0 0.0 0.0 0.0 0.0 0.0 0.0
0.0 0.0 0.0 0.0 0.0 0.0 0.0 0.0 0.0 0.0 0.0 0.0 0.0 0.0 0.0 0.0 0.0 0.0 0.0 0.0 0.0 6.9 18.1 4.3 0.0 0.2 0.0 0.0 0.0 0.0 0.0 0.0 0.0 1.5 11.6 12.5 11.8 1.6 1.5 0.5 0.7 0.0 0.0 0.0 0.1 0.0 0.0 0.0 0.0 0.0 0.0 0.0 0.0 0.0
0.0 0.0 0.0 0.0 0.0 0.0 0.0 0.0 0.0 0.0 0.0 0.0 0.0 0.0 0.0 0.0 0.0 0.0 0.0 0.0 0.0 0.9 14.3 4.5 0.9 0.6 0.0 0.0 0.0 0.0 0.1 1.2 7.8 14.8 18.4 12.1 2.2 2.9 3.5 2.2 1.9 0.0 0.0 0.1 0.1 0.0 0.0 0.0 0.0 0.0 0.0 0.0 0.0 0.0
0.0 0.0 0.0 0.0 0.0 0.0 0.0 0.0 0.0 0.0 0.0 0.0 0.0 0.0 0.0 0.0 0.0 0.0 6.9 0.0 0.0 0.0 20.4 20.0 2.1 1.4 0.0 0.0 0.2 0.8 0.5 4.4 7.6 13.2 13.3 5.1 0.6 2.0 12.3 3.2 0.0 0.0 0.0 0.0 0.1 0.0 0.1 0.0 0.0 0.0 0.0 0.0 0.0 0.0
0.0 0.0 0.0 0.0 0.0 0.0 0.0 0.0 0.0 0.0 0.0 0.0 0.0 0.0 0.0 0.0 0.0 3.9 3.1 0.1 0.0 0.0 23.9 24.0 9.0 2.5 0.6 0.1 0.9 1.3 1.6 3.4 5.9 11.6 10.9 4.9 2.6 6.4 15.9 6.0 0.0 0.0 0.0 0.0 0.1 0.1 0.1 0.0 0.0 0.0 0.3 0.1 0.0 0.0
0.0 0.0 0.0 0.0 0.0 0.0 0.0 0.0 0.0 0.0 0.0 0.0 0.0 0.0 0.0 0.0 0.0 3.8 0.4 0.0 0.0 4.0 17.0 34.4 11.0 3.1 1.2 4.0 3.9 1.4 4.6 6.8 8.0 7.1 3.5 1.3 1.9 7.5 12.0 0.0 0.0 0.0 0.0 0.0 0.0 0.0 0.1 0.1 0.0 0.0 0.0 0.1 0.0 0.0
0.0 0.0 0.0 0.0 0.0 0.0 0.0 0.0 0.0 0.0 0.0 0.0 0.0 0.0 0.0 1.9 6.3 5.1 0.0 0.0 0.0 4.4 22.1 18.8 8.8 6.1 0.8 2.6 2.6 4.1 5.1 15.7 4.9 6.9 1.3 1.0 3.4 7.4 0.2 0.1 0.1 0.0 0.1 0.3 0.2 0.0 0.0 0.0 0.0 0.0 0.0 0.0 0.0 0.0
0.0 0.0 0.0 0.0 0.0 0.0 0.0 0.0 0.0 0.0 0.0 0.0 0.0 8.9 24.2 7.9 0.0 0.0 1.6 12.8 17.8 16.6 15.5 10.3 3.5 6.7 1.9 2.4 4.4 3.5 6.0 5.8 9.1 1.3 0.2 8.1 0.5 0.1 0.3 0.7 1.2 1.4 0.9 1.1 2.6 2.9 0.9 0.7 0.0 0.0 0.0 0.0 0.0 0.0
0.0 0.0 0.0 0.0 0.0 0.0 0.0 0.0 0.0 0.0 0.0 1.4 20.9 18.3 5.1 0.3 1.4 6.7 31.0 29.3 20.0 18.4 4.6 4.0 3.4 4.3 1.1 6.2 5.4 3.6 10.7 6.8 12.4 3.8 4.0 5.3 4.4 6.2 3.3 2.9 3.0 2.0 1.9 1.5 1.5 1.6 0.9 2.0 2.3 1.4 0.5 0.1 0.0 0.0
0.0 0.0 0.0 0.0 0.0 0.0 0.0 0.0 0.0 0.1 0.4 0.1 0.0 0.4 2.5 8.5 29.3 36.0 26.9 12.5 3.9 2.8 1.2 6.0 5.5 2.3 3.7 2.2 8.7 8.4 10.6 9.7 9.8 5.9 15.7 7.0 6.4 1.5 3.4 5.0 3.0 1.6 2.2 2.2 1.6 2.7 1.8 1.4 1.4 3.0 2.0 1.5 1.1 0.9
0.0 0.0 0.0 0.0 0.0 0.0 0.0 0.0 0.0 0.0 0.0 0.3 11.1 31.4 32.2 34.4 42.0 26.7 11.2 7.0 3.2 3.7 4.3 6.5 6.5 5.8 8.1 9.3 16.5 11.4 15.9 8.0 0.9 10.1 6.9 6.7 2.1 1.9 2.9 3.3 2.1 2.5 4.3 3.7 2.3 2.0 2.7 2.5 1.8 3.5 4.1 1.2 1.2 1.3
0.0 0.0 0.0 0.0 0.0 0.0 0.0 0.0 0.0 0.3 2.6 15.4 36.5 46.6 30.9 31.4 10.9 6.1 4.3 3.8 2.2 1.7 1.6 3.2 5.0 8.5 8.8 18.0 15.8 19.4 9.1 7.1 13.5 11.1 7.5 2.1 1.7 1.8 1.6 1.0 1.9 1.9 3.2 3.8 4.2 3.3 3.6 3.9 3.1 2.6 2.8 2.1 1.8 0.9
0.0 0.0 0.0 0.0 0.0 0.0 0.0 0.0 0.0 1.0 5.8 31.1 28.4 28.6 17.9 6.8 5.4 6.2 5.1 3.2 2.9 3.4 6.0 7.5 8.9 7.8 11.1 23.1 13.6 9.6 13.9 13.5 12.2 8.3 3.1 1.0 1.3 1.2 0.7 0.5 0.9 1.8 3.4 3.9 2.7 2.0 3.3 3.1 4.1 3.2 2.1 2.3 1.5 1.2
0.0 0.0 0.0 0.0 0.0 0.0 0.0 0.0 0.0 0.3 17.0 26.6 23.3 11.8 2.8 3.1 5.1 4.9 6.2 7.0 6.2 6.7 8.5 10.5 14.9 15.6 11.9 14.3 16.1 11.1 12.0 8.0 6.4 2.7 1.6 1.8 1.4 0.3 0.5 0.2 0.8 2.5 3.0 4.6 5.8 2.9 2.5 4.3 4.4 3.0 1.7 2.0 1.7 1.0
0.0 1.4 0.0 0.0 0.0 0.0 0.0 0.1 0.6 22.9 23.1 24.5 13.5 3.1 4.0 4.6 7.5 7.8 7.8 8.1 6.8 11.8 15.8 16.3 20.5 9.5 10.6 12.0 9.6 5.5 6.3 3.9 3.5 2.5 1.1 0.8 2.0 1.9 1.4 0.7 0.8 1.8 1.8 3.7 6.8 4.1 4.3 5.5 6.6 5.9 4.2 2.0 1.7 2.2
0.2 0.0 0.0 0.0 0.0 0.0 2.4 5.7 14.5 28.7 29.5 9.4 4.8 3.5 2.6 4.1 5.0 5.9 6.8 5.9 9.5 13.8 15.6 22.0 12.9 13.1 8.7 6.3 2.4 2.9 3.3 2.5 2.5 3.4 3.4 2.8 2.5 2.0 1.9 1.9 1.4 1.8 3.1 4.7 7.3 5.7 6.2 7.4 7.3 5.7 4.4 4.7 4.3 4.5
0.4 0.0 0.0 0.0 0.0 2.1 25.1 27.0 16.9 26.5 7.7 3.2 2.9 2.9 2.9 3.9 4.8 6.0 6.3 6.6 7.4 8.0 11.4 17.1 18.9 9.9 4.7 3.8 4.2 2.9 4.2 4.9 5.9 4.4 3.6 3.2 2.7 2.3 2.1 2.5 2.4 1.6 2.4 4.0 4.5 5.6 6.2 6.0 5.2 6.1 4.8 3.5 5.2 4.3
0.0 0.0 0.0 0.0 0.0 15.6 33.5 28.2 11.7 8.5 4.5 2.7 3.0 3.8 3.2 3.4 4.5 5.2 7.3 8.8 9.3 11.5 18.9 17.4 4.6 4.5 5.2 3.3 4.8 5.7 4.2 4.3 7.1 6.7 4.0 4.1 3.8 3.3 3.3 2.9 2.6 2.3 2.0 3.0 4.3 4.5 7.9 6.9 6.4 7.2 6.1 6.2 8.1 7.0
1.4 7.3 2.7 0.6 6.7 20.2 20.8 17.7 9.7 5.0 2.9 4.1 4.6 3.2 3.9 3.6 4.9 7.1 8.0 7.8 13.9 15.9 9.3 5.5 4.8 4.5 4.2 4.3 4.2 5.2 4.4 5.3 8.3 10.6 9.3 8.1 5.6 5.6 5.9 3.7 2.3 2.2 3.1 3.7 5.1 6.5 9.4 8.7 7.7 7.1 7.4 7.6 7.9 8.9
9.7 4.0 13.9 9.2 37.3 37.2 25.2 9.7 5.4 3.8 3.1 4.5 4.3 3.5 5.3 6.4 7.1 8.5 8.0 8.6 12.6 8.0 6.5 7.2 6.9 6.3 4.8 5.4 7.2 7.4 8.0 7.0 6.8 7.4 6.2 9.4 9.8 6.9 7.9 6.6 4.1 4.3 4.4 6.4 7.5 8.9 8.8 8.7 9.5 10.6 10.3 11.1 10.3 11.3
4.1 10.5 36.5 38.3 45.9 40.6 25.0 7.5 4.5 4.7 5.0 6.2 4.7 6.1 6.7 6.6 7.0 6.4 8.6 8.4 8.0 8.6 8.0 7.9 8.0 9.8 9.6 8.5 7.8 7.8 8.6 8.8 7.4 6.7 7.4 7.3 7.4 7.7 9.0 8.7 8.6 12.1 10.7 11.0 11.0 12.2 11.3 10.0 10.4 10.3 10.3 9.5 8.0 10.4
2.2 36.7 50.9 49.0 34.1 30.6 18.1 16.5 11.0 6.9 7.8 7.2 6.5 5.0 4.8 4.5 6.0 7.0 7.5 6.5 7.9 8.3 7.3 7.8 7.8 6.8 5.8 6.4 7.8 8.7 10.1 9.6 8.2 6.6 9.4 12.6 7.1 7.2 7.4 9.4 10.5 12.5 13.8 13.2 12.2 11.8 10.3 11.2 11.3 12.1 10.2 10.7 9.4 8.0
60.4 73.1 50.4 51.4 28.0 17.6 10.9 9.2 7.0 5.8 5.1 5.1 3.6 3.7 3.9 4.7 6.1 7.3 6.1 7.4 7.5 8.2 8.3 8.0 8.0 10.2 12.1 6.2 7.9 8.4 9.3 14.5 14.7 12.1 7.5 13.1 12.9 8.5 7.2 7.4 8.3 9.7 11.3 13.6 11.4 10.1 10.3 11.4 12.3 11.3 12.3 11.3 10.9 9.6
68.5 38.9 28.5 13.0 8.6 3.5 2.4 2.3 2.4 2.1 1.2 3.2 2.5 2.2 2.2 5.6 8.0 7.1 6.7 8.0 7.6 8.0 9.6 10.0 10.5 7.3 6.3 10.5 12.7 10.5 9.8 14.0 16.2 12.9 8.2 12.1 17.2 20.2 14.9 11.4 9.2 7.9 10.7 11.9 13.9 11.9 10.5 9.1 9.5 9.8 12.6 11.6 8.9 9.4
56.0 31.2 11.6 2.7 1.9 1.7 1.6 1.7 1.6 1.9 2.8 3.7 3.3 2.9 4.0 9.1 4.2 6.2 7.4 8.8 9.7 8.5 10.2 11.0 12.4 12.8 10.8 8.3 7.3 8.5 13.5 17.5 22.0 17.6 14.0 13.9 13.2 15.8 19.7 21.0 15.5 10.7 15.2 16.7 14.9 11.3 11.5 9.5 8.2 6.2 8.4 9.1 9.5 9.2
18.5 8.4 4.5 5.0 5.1 4.0 4.7 3.3 2.7 2.2 2.8 2.1 3.6 4.2 5.9 5.2 4.4 5.4 6.4 7.1 9.2 9.0 9.9 10.5 11.4 12.6 14.0 13.2 13.5 13.4 12.9 14.5 13.8 12.1 10.4 10.2 10.9 11.0 12.3 14.2 14.1 13.7 14.4 12.4 13.0 12.6 11.0 9.3 9.6 8.5 7.7 8.0 10.0 9.7
6.2 3.0 2.7 3.9 3.8 3.3 3.1 2.4 2.4 1.9 1.7 1.9 1.5 1.2 1.7 2.2 5.0 6.0 5.7 7.1 6.8 7.6 7.4 8.0 6.1 9.0 10.4 11.9 13.4 15.9 16.8 16.7 14.9 12.5 10.9 10.0 8.1 7.4 10.6 11.8 12.0 11.9 11.8 12.8 10.7 12.2 11.9 12.3 12.6 11.9 10.4 10.7 12.3 13.7
1.2 1.0 1.3 1.5 2.6 2.7 2.3 3.3 3.7 3.9 4.0 4.0 1.9 1.1 1.7 3.1 6.0 6.7 6.0 4.9 5.2 6.6 7.8 8.7 8.8 9.0 9.8 9.7 9.9 9.6 11.6 12.8 19.0 21.6 19.1 13.3 14.1 16.2 16.1 15.5 14.2 13.7 12.0 10.6 12.8 15.6 10.4 10.8 12.1 11.7 11.4 11.4 11.1 11.5
0.0 0.0 0.1 0.2 0.5 1.1 1.9 1.0 1.5 1.5 2.9 2.9 2.8 3.3 3.4 4.4 4.6 6.2 5.2 5.7 6.3 6.5 6.3 5.9 5.8 8.3 10.5 10.4 12.2 12.1 8.3 8.8 11.3 11.8 13.9 16.1 14.1 14.2 15.4 16.3 15.2 14.7 13.6 12.5 11.0 11.1 10.6 10.0 9.6 10.0 10.3 11.1 11.3 10.2
0.0 0.1 0.0 0.6 0.8 1.7 1.4 0.7 0.4 0.0 0.3 0.7 2.5 3.2 4.0 4.3 4.1 3.5 3.6 2.7 2.6 3.3 6.5 8.0 8.5 8.1 12.1 15.0 15.8 17.6 19.4 17.5 12.1 13.1 14.6 15.2 14.2 13.5 14.2 13.6 14.4 13.8 13.5 12.6 11.5 12.1 11.0 11.2 12.7 12.1 12.3 13.2 13.1 12.0
2.3 1.2 0.9 0.5 2.2 2.2 1.7 1.0 1.0 1.0 1.0 0.9 1.0 2.1 2.4 1.8 2.1 2.0 2.4 4.1 7.4 8.1 7.9 9.5 10.6 12.7 14.2 15.6 15.6 15.5 13.9 12.7 14.1 13.6 14.1 13.9 13.5 13.5 13.6 12.9 13.0 12.6 11.2 11.3 12.8 13.4 13.7 12.4 13.5 13.3 13.0 13.0 13.3 12.7